Darstellungsparameter: Aktuell verwendete Einstellungen:
Skalierung der Graphiken ... ?
xyx+y,   Skalierungsfaktor:      Skalierung: Modus: x, Faktor: 1
Darstellungszeitraum ... ?
Vom - - bis: - -   Zeitraum: 06.11.2020 - 06.11.2020
Min/Max/Avg-Anzeige ... ?
Zeige MMA aktuell
Zeige MMA Monat
Zeige MMA alles
Zeige --A aktuell
Zeige --A Monat
Zeige --A alles
Keine MMA-Anzeige
MMA:
Keine MMA-Graphiken
MMA-Basis: 06.11.2020 - 06.11.2020
Quicknavigation für Darstellung... ?
Tage:      1T, 2T, 3T, 5T -1T -2T -3T -5T +1T +2T +3T +5T
Wochen: 1W, 2W, 3W -1W -2W -3W +1W +2W +3W
Monate: 1M, 3M, 6M -1M -3M -6M +1M +3M +6M
Jahre:    1J, 3J, 5J, 10J -1J -3J -5J -10J +1J +3J +5J +10J
Nutze für die Darstellung ... ?
Originaldaten oder Mittelwerte auf ...
Stundenbasis Tagesbasis Wochenbasis
Monatsbasis Jahresbasis      Datenbasis: Original-Daten
Darstellen als:
Statistik (Auto) Statistik J:M      Darstellung:
Zur Graphik,    zurück zur Übersicht aller Sensoren.
 
Tabellarische Datenbersicht: ?
 
Sensor: Nr:Datum:Temp:Abs-Feuchte:Windchill:Wind:
Aussen-T/F 1 06-11-2020 00:00:00 3.3 C 5.88 g/m*3 3.3 C 0 km/h
2 06-11-2020 00:05:00 3.3 C 5.88 g/m*3 3.3 C 3.2 km/h
3 06-11-2020 00:10:00 3.2 C 5.85 g/m*3 3.2 C 3.2 km/h
4 06-11-2020 00:15:00 3.2 C 5.85 g/m*3 3.2 C 0 km/h
5 06-11-2020 00:20:00 3.1 C 5.81 g/m*3 3.1 C 0 km/h
6 06-11-2020 00:25:00 3.1 C 5.81 g/m*3 3.1 C 0 km/h
7 06-11-2020 00:30:00 3.1 C 5.81 g/m*3 3.1 C 0 km/h
8 06-11-2020 00:35:00 3 C 5.77 g/m*3 3 C 0 km/h
9 06-11-2020 00:40:00 2.9 C 5.73 g/m*3 2.9 C 0 km/h
10 06-11-2020 00:45:00 2.9 C 5.73 g/m*3 2.9 C 0 km/h
11 06-11-2020 00:50:00 2.9 C 5.73 g/m*3 2.9 C 0 km/h
12 06-11-2020 00:55:00 2.9 C 5.73 g/m*3 2.9 C 1.6 km/h
13 06-11-2020 01:00:00 2.8 C 5.69 g/m*3 2.8 C 0 km/h
14 06-11-2020 01:05:00 2.8 C 5.69 g/m*3 2.8 C 3.2 km/h
15 06-11-2020 01:10:00 2.8 C 5.69 g/m*3 2.8 C 3.2 km/h
16 06-11-2020 01:15:00 2.7 C 5.65 g/m*3 2.7 C 0 km/h
17 06-11-2020 01:20:00 2.7 C 5.65 g/m*3 2.7 C 0 km/h
18 06-11-2020 01:25:00 2.7 C 5.65 g/m*3 2.7 C 0 km/h
19 06-11-2020 01:30:00 2.7 C 5.71 g/m*3 2.7 C 3.2 km/h
20 06-11-2020 01:35:00 2.7 C 5.65 g/m*3 2.7 C 3.2 km/h
21 06-11-2020 01:40:00 2.6 C 5.61 g/m*3 2.6 C 3.2 km/h
22 06-11-2020 01:45:00 2.6 C 5.61 g/m*3 2.6 C 3.2 km/h
23 06-11-2020 01:50:00 2.5 C 5.58 g/m*3 2.5 C 0 km/h
24 06-11-2020 01:55:00 2.5 C 5.58 g/m*3 2.5 C 0 km/h
25 06-11-2020 02:00:00 2.5 C 5.58 g/m*3 2.5 C 0 km/h
Sensor: Nr:Datum:Temp:Abs-Feuchte:Windchill:Wind:
Aussen-T/F 26 06-11-2020 02:05:00 2.6 C 5.61 g/m*3 2.6 C 0 km/h
27 06-11-2020 02:10:00 2.6 C 5.61 g/m*3 2.6 C 0 km/h
28 06-11-2020 02:15:00 2.6 C 5.61 g/m*3 2.6 C 0 km/h
29 06-11-2020 02:20:00 2.6 C 5.61 g/m*3 2.6 C 1.6 km/h
30 06-11-2020 02:25:00 2.6 C 5.67 g/m*3 2.6 C 3.2 km/h
31 06-11-2020 02:30:00 2.6 C 5.67 g/m*3 2.6 C 3.2 km/h
32 06-11-2020 02:35:00 2.6 C 5.67 g/m*3 2.6 C 4.8 km/h
33 06-11-2020 02:40:00 2.6 C 5.67 g/m*3 2.6 C 4.8 km/h
34 06-11-2020 02:45:00 2.5 C 5.63 g/m*3 2.5 C 0 km/h
35 06-11-2020 02:50:00 2.5 C 5.63 g/m*3 2.5 C 0 km/h
36 06-11-2020 02:55:00 2.5 C 5.63 g/m*3 2.5 C 0 km/h
37 06-11-2020 03:00:00 2.6 C 5.67 g/m*3 2.6 C 0 km/h
38 06-11-2020 03:05:00 2.7 C 5.65 g/m*3 2.7 C 0 km/h
39 06-11-2020 03:10:00 2.7 C 5.65 g/m*3 2.7 C 0 km/h
40 06-11-2020 03:15:00 2.7 C 5.65 g/m*3 2.7 C 0 km/h
41 06-11-2020 03:20:00 2.7 C 5.65 g/m*3 2.7 C 0 km/h
42 06-11-2020 03:25:00 2.7 C 5.65 g/m*3 2.7 C 3.2 km/h
43 06-11-2020 03:30:00 2.6 C 5.61 g/m*3 2.6 C 1.6 km/h
44 06-11-2020 03:35:00 2.6 C 5.61 g/m*3 2.6 C 0 km/h
45 06-11-2020 03:40:00 2.6 C 5.61 g/m*3 2.6 C 0 km/h
46 06-11-2020 03:45:00 2.6 C 5.61 g/m*3 2.6 C 0 km/h
47 06-11-2020 03:50:00 2.7 C 5.65 g/m*3 2.7 C 0 km/h
48 06-11-2020 03:55:00 2.7 C 5.65 g/m*3 2.7 C 1.6 km/h
49 06-11-2020 04:00:00 2.7 C 5.65 g/m*3 2.7 C 1.6 km/h
50 06-11-2020 04:05:00 2.6 C 5.61 g/m*3 2.6 C 1.6 km/h
Sensor: Nr:Datum:Temp:Abs-Feuchte:Windchill:Wind:
Aussen-T/F 51 06-11-2020 04:10:00 2.6 C 5.67 g/m*3 2.6 C 3.2 km/h
52 06-11-2020 04:15:00 2.5 C 5.63 g/m*3 2.5 C 0 km/h
53 06-11-2020 04:20:00 2.5 C 5.63 g/m*3 2.5 C 0 km/h
54 06-11-2020 04:25:00 2.4 C 5.6 g/m*3 2.4 C 0 km/h
55 06-11-2020 04:30:00 2.4 C 5.6 g/m*3 2.4 C 0 km/h
56 06-11-2020 04:35:00 2.4 C 5.6 g/m*3 2.4 C 0 km/h
57 06-11-2020 04:40:00 2.5 C 5.63 g/m*3 2.5 C 0 km/h
58 06-11-2020 04:45:00 2.5 C 5.63 g/m*3 2.5 C 0 km/h
59 06-11-2020 04:50:00 2.5 C 5.63 g/m*3 2.5 C 1.6 km/h
60 06-11-2020 04:55:00 2.4 C 5.6 g/m*3 2.4 C 1.6 km/h
61 06-11-2020 05:00:00 2.4 C 5.54 g/m*3 2.4 C 3.2 km/h
62 06-11-2020 05:05:00 2.4 C 5.54 g/m*3 2.4 C 3.2 km/h
63 06-11-2020 05:10:00 2.4 C 5.54 g/m*3 2.4 C 0 km/h
64 06-11-2020 05:15:00 2.4 C 5.54 g/m*3 2.4 C 0 km/h
65 06-11-2020 05:20:00 2.4 C 5.54 g/m*3 2.4 C 0 km/h
66 06-11-2020 05:25:00 2.4 C 5.6 g/m*3 2.4 C 0 km/h
67 06-11-2020 05:30:00 2.5 C 5.63 g/m*3 2.5 C 0 km/h
68 06-11-2020 05:35:00 2.5 C 5.63 g/m*3 2.5 C 0 km/h
69 06-11-2020 05:40:00 2.6 C 5.67 g/m*3 2.6 C 0 km/h
70 06-11-2020 05:45:00 2.6 C 5.61 g/m*3 2.6 C 0 km/h
71 06-11-2020 05:50:00 2.6 C 5.61 g/m*3 2.6 C 1.6 km/h
72 06-11-2020 05:55:00 2.6 C 5.67 g/m*3 2.6 C 0 km/h
73 06-11-2020 06:00:00 2.6 C 5.67 g/m*3 2.6 C 0 km/h
74 06-11-2020 06:05:00 2.6 C 5.67 g/m*3 2.6 C 0 km/h
75 06-11-2020 06:10:00 2.6 C 5.67 g/m*3 2.6 C 0 km/h
Sensor: Nr:Datum:Temp:Abs-Feuchte:Windchill:Wind:
Aussen-T/F 76 06-11-2020 06:15:00 2.6 C 5.67 g/m*3 2.6 C 0 km/h
77 06-11-2020 06:20:00 2.6 C 5.61 g/m*3 2.6 C 0 km/h
78 06-11-2020 06:25:00 2.7 C 5.65 g/m*3 2.7 C 0 km/h
79 06-11-2020 06:30:00 2.6 C 5.67 g/m*3 2.6 C 0 km/h
80 06-11-2020 06:35:00 2.6 C 5.67 g/m*3 2.6 C 0 km/h
81 06-11-2020 06:40:00 2.6 C 5.61 g/m*3 2.6 C 0 km/h
82 06-11-2020 06:45:00 2.7 C 5.71 g/m*3 2.7 C 1.6 km/h
83 06-11-2020 06:50:00 2.6 C 5.61 g/m*3 2.6 C 0 km/h
84 06-11-2020 06:55:00 2.6 C 5.67 g/m*3 2.6 C 1.6 km/h
85 06-11-2020 07:00:00 2.6 C 5.67 g/m*3 2.6 C 0 km/h
86 06-11-2020 07:05:00 2.6 C 5.67 g/m*3 2.6 C 0 km/h
87 06-11-2020 07:10:00 2.6 C 5.67 g/m*3 2.6 C 0 km/h
88 06-11-2020 07:15:00 2.6 C 5.67 g/m*3 2.6 C 0 km/h
89 06-11-2020 07:20:00 2.6 C 5.67 g/m*3 2.6 C 0 km/h
90 06-11-2020 07:25:00 2.6 C 5.67 g/m*3 2.6 C 3.2 km/h
91 06-11-2020 07:30:00 2.6 C 5.67 g/m*3 2.6 C 0 km/h
92 06-11-2020 07:35:00 2.5 C 5.63 g/m*3 2.5 C 1.6 km/h
93 06-11-2020 07:40:00 2.5 C 5.63 g/m*3 2.5 C 0 km/h
94 06-11-2020 07:45:00 2.5 C 5.63 g/m*3 2.5 C 0 km/h
95 06-11-2020 07:50:00 2.4 C 5.6 g/m*3 2.4 C 0 km/h
96 06-11-2020 07:55:00 2.4 C 5.6 g/m*3 2.4 C 0 km/h
97 06-11-2020 08:00:00 2.4 C 5.6 g/m*3 2.4 C 3.2 km/h
98 06-11-2020 08:05:00 2.4 C 5.6 g/m*3 2.4 C 0 km/h
99 06-11-2020 08:10:00 2.4 C 5.6 g/m*3 2.4 C 0 km/h
100 06-11-2020 08:15:00 2.4 C 5.6 g/m*3 2.4 C 0 km/h
Sensor: Nr:Datum:Temp:Abs-Feuchte:Windchill:Wind:
Aussen-T/F 101 06-11-2020 08:20:00 2.5 C 5.63 g/m*3 2.5 C 0 km/h
102 06-11-2020 08:25:00 2.6 C 5.67 g/m*3 2.6 C 0 km/h
103 06-11-2020 08:30:00 2.6 C 5.67 g/m*3 2.6 C 0 km/h
104 06-11-2020 08:35:00 2.6 C 5.67 g/m*3 2.6 C 0 km/h
105 06-11-2020 08:40:00 2.6 C 5.67 g/m*3 2.6 C 0 km/h
106 06-11-2020 08:45:00 2.6 C 5.67 g/m*3 2.6 C 0 km/h
107 06-11-2020 08:50:00 2.7 C 5.71 g/m*3 2.7 C 0 km/h
108 06-11-2020 08:55:00 2.7 C 5.71 g/m*3 2.7 C 0 km/h
109 06-11-2020 09:00:00 2.7 C 5.71 g/m*3 2.7 C 0 km/h
110 06-11-2020 09:05:00 2.8 C 5.75 g/m*3 2.8 C 0 km/h
111 06-11-2020 09:10:00 2.8 C 5.75 g/m*3 2.8 C 0 km/h
112 06-11-2020 09:15:00 2.9 C 5.79 g/m*3 2.9 C 0 km/h
113 06-11-2020 09:20:00 2.9 C 5.79 g/m*3 2.9 C 0 km/h
114 06-11-2020 09:25:00 3.1 C 5.87 g/m*3 3.1 C 0 km/h
115 06-11-2020 09:30:00 3.1 C 5.87 g/m*3 3.1 C 0 km/h
116 06-11-2020 09:35:00 3.1 C 5.87 g/m*3 3.1 C 0 km/h
117 06-11-2020 09:40:00 3.2 C 5.91 g/m*3 3.2 C 0 km/h
118 06-11-2020 09:45:00 3.2 C 5.91 g/m*3 3.2 C 0 km/h
119 06-11-2020 09:50:00 3.3 C 5.95 g/m*3 3.3 C 0 km/h
120 06-11-2020 09:55:00 3.3 C 5.95 g/m*3 3.3 C 0 km/h
121 06-11-2020 10:00:00 3.4 C 5.99 g/m*3 3.4 C 0 km/h
122 06-11-2020 10:05:00 3.4 C 5.99 g/m*3 3.4 C 0 km/h
123 06-11-2020 10:10:00 3.4 C 5.99 g/m*3 3.4 C 1.6 km/h
124 06-11-2020 10:15:00 3.4 C 5.99 g/m*3 3.4 C 1.6 km/h
125 06-11-2020 10:20:00 3.4 C 5.99 g/m*3 3.4 C 0 km/h
Sensor: Nr:Datum:Temp:Abs-Feuchte:Windchill:Wind:
Aussen-T/F 126 06-11-2020 10:25:00 3.6 C 6.07 g/m*3 3.6 C 0 km/h
127 06-11-2020 10:30:00 3.7 C 6.11 g/m*3 3.7 C 0 km/h
128 06-11-2020 10:35:00 3.8 C 6.15 g/m*3 3.8 C 0 km/h
129 06-11-2020 10:40:00 3.9 C 6.19 g/m*3 3.9 C 1.6 km/h
130 06-11-2020 10:45:00 3.8 C 6.15 g/m*3 3.8 C 1.6 km/h
131 06-11-2020 10:50:00 3.8 C 6.15 g/m*3 3.8 C 0 km/h
132 06-11-2020 10:55:00 3.8 C 6.15 g/m*3 3.8 C 0 km/h
133 06-11-2020 11:00:00 3.9 C 6.19 g/m*3 3.9 C 3.2 km/h
134 06-11-2020 11:05:00 4 C 6.23 g/m*3 4 C 4.8 km/h
135 06-11-2020 11:10:00 4 C 6.23 g/m*3 4 C 3.2 km/h
136 06-11-2020 11:15:00 4.1 C 6.27 g/m*3 4.1 C 3.2 km/h
137 06-11-2020 11:20:00 4.1 C 6.27 g/m*3 4.1 C 3.2 km/h
138 06-11-2020 11:25:00 4.1 C 6.27 g/m*3 4.1 C 0 km/h
139 06-11-2020 11:30:00 4.2 C 6.31 g/m*3 4.2 C 0 km/h
140 06-11-2020 11:35:00 4.2 C 6.31 g/m*3 4.2 C 0 km/h
141 06-11-2020 11:40:00 4.2 C 6.31 g/m*3 4.2 C 0 km/h
142 06-11-2020 11:45:00 4.2 C 6.31 g/m*3 4.2 C 0 km/h
143 06-11-2020 11:50:00 4.2 C 6.31 g/m*3 4.2 C 0 km/h
144 06-11-2020 11:55:00 4.2 C 6.31 g/m*3 4.2 C 0 km/h
145 06-11-2020 12:00:00 4.3 C 6.36 g/m*3 4.3 C 0 km/h
146 06-11-2020 12:05:00 4.3 C 6.36 g/m*3 4.3 C 0 km/h
147 06-11-2020 12:10:00 4.3 C 6.36 g/m*3 4.3 C 1.6 km/h
148 06-11-2020 12:15:00 4.3 C 6.36 g/m*3 4.3 C 3.2 km/h
149 06-11-2020 12:20:00 4.3 C 6.36 g/m*3 4.3 C 3.2 km/h
150 06-11-2020 12:25:00 4.3 C 6.36 g/m*3 4.3 C 3.2 km/h
Sensor: Nr:Datum:Temp:Abs-Feuchte:Windchill:Wind:
Aussen-T/F 151 06-11-2020 12:30:00 4.3 C 6.36 g/m*3 4.3 C 4.8 km/h
152 06-11-2020 12:35:00 4.3 C 6.36 g/m*3 4.3 C 3.2 km/h
153 06-11-2020 12:40:00 4.3 C 6.36 g/m*3 4.3 C 0 km/h
154 06-11-2020 12:45:00 4.4 C 6.4 g/m*3 4.4 C 0 km/h
155 06-11-2020 12:50:00 4.5 C 6.44 g/m*3 4.5 C 0 km/h
156 06-11-2020 12:55:00 4.6 C 6.48 g/m*3 4.6 C 0 km/h
157 06-11-2020 13:00:00 4.7 C 6.53 g/m*3 4.7 C 0 km/h
158 06-11-2020 13:05:00 4.7 C 6.53 g/m*3 4.7 C 0 km/h
159 06-11-2020 13:10:00 4.8 C 6.57 g/m*3 4.8 C 0 km/h
160 06-11-2020 13:15:00 4.9 C 6.62 g/m*3 4.9 C 0 km/h
161 06-11-2020 13:20:00 5 C 6.66 g/m*3 5 C 0 km/h
162 06-11-2020 13:25:00 5.1 C 6.7 g/m*3 5.1 C 3.2 km/h
163 06-11-2020 13:30:00 5.2 C 6.75 g/m*3 5.2 C 3.2 km/h
164 06-11-2020 13:35:00 5.2 C 6.75 g/m*3 5.2 C 3.2 km/h
165 06-11-2020 13:40:00 5.3 C 6.79 g/m*3 5.3 C 3.2 km/h
166 06-11-2020 13:45:00 5.4 C 6.84 g/m*3 5.4 C 3.2 km/h
167 06-11-2020 13:50:00 5.5 C 6.88 g/m*3 5.5 C 4.8 km/h
168 06-11-2020 13:55:00 5.6 C 6.93 g/m*3 5.6 C 0 km/h
169 06-11-2020 14:00:00 5.6 C 6.93 g/m*3 5.6 C 0 km/h
170 06-11-2020 14:05:00 5.7 C 6.97 g/m*3 5.7 C 0 km/h
171 06-11-2020 14:10:00 5.8 C 7.02 g/m*3 5.8 C 0 km/h
172 06-11-2020 14:15:00 5.8 C 7.02 g/m*3 5.8 C 3.2 km/h
173 06-11-2020 14:20:00 5.9 C 7.07 g/m*3 4.63 C 6.4 km/h
174 06-11-2020 14:25:00 6.1 C 7.16 g/m*3 4.86 C 6.4 km/h
175 06-11-2020 14:30:00 6.1 C 7.16 g/m*3 4.86 C 6.4 km/h
Sensor: Nr:Datum:Temp:Abs-Feuchte:Windchill:Wind:
Aussen-T/F 176 06-11-2020 14:35:00 6.2 C 7.21 g/m*3 6.2 C 4.8 km/h
177 06-11-2020 14:40:00 6.2 C 7.21 g/m*3 6.2 C 4.8 km/h
178 06-11-2020 14:45:00 6.2 C 7.21 g/m*3 6.2 C 3.2 km/h
179 06-11-2020 14:50:00 6.2 C 7.21 g/m*3 6.2 C 4.8 km/h
180 06-11-2020 14:55:00 6.3 C 7.25 g/m*3 5.1 C 6.4 km/h
181 06-11-2020 15:00:00 6.3 C 7.25 g/m*3 6.3 C 3.2 km/h
182 06-11-2020 15:05:00 6.3 C 7.25 g/m*3 6.3 C 4.8 km/h
183 06-11-2020 15:10:00 6.4 C 7.3 g/m*3 6.4 C 4.8 km/h
184 06-11-2020 15:15:00 6.4 C 7.3 g/m*3 6.4 C 4.8 km/h
185 06-11-2020 15:20:00 6.4 C 7.3 g/m*3 6.4 C 4.8 km/h
186 06-11-2020 15:25:00 6.4 C 7.3 g/m*3 6.4 C 3.2 km/h
187 06-11-2020 15:30:00 6.4 C 7.3 g/m*3 6.4 C 0 km/h
188 06-11-2020 15:35:00 6.4 C 7.3 g/m*3 6.4 C 3.2 km/h
189 06-11-2020 15:40:00 6.4 C 7.3 g/m*3 6.4 C 4.8 km/h
190 06-11-2020 15:45:00 6.3 C 7.25 g/m*3 6.3 C 4.8 km/h
191 06-11-2020 15:50:00 6.3 C 7.25 g/m*3 6.3 C 4.8 km/h
192 06-11-2020 15:55:00 6.2 C 7.21 g/m*3 6.2 C 1.6 km/h
193 06-11-2020 16:00:00 6.1 C 7.16 g/m*3 6.1 C 3.2 km/h
194 06-11-2020 16:05:00 6.1 C 7.16 g/m*3 4.86 C 6.4 km/h
195 06-11-2020 16:10:00 6 C 7.11 g/m*3 6 C 3.2 km/h
196 06-11-2020 16:15:00 5.9 C 7.07 g/m*3 5.9 C 3.2 km/h
197 06-11-2020 16:20:00 5.8 C 7.02 g/m*3 5.8 C 1.6 km/h
198 06-11-2020 16:25:00 5.7 C 6.97 g/m*3 5.7 C 3.2 km/h
199 06-11-2020 16:30:00 5.6 C 6.93 g/m*3 5.6 C 4.8 km/h
200 06-11-2020 16:35:00 5.5 C 6.88 g/m*3 5.5 C 3.2 km/h
Sensor: Nr:Datum:Temp:Abs-Feuchte:Windchill:Wind:
Aussen-T/F 201 06-11-2020 16:40:00 5.4 C 6.84 g/m*3 5.4 C 4.8 km/h
202 06-11-2020 16:45:00 5.3 C 6.79 g/m*3 5.3 C 4.8 km/h
203 06-11-2020 16:50:00 5.2 C 6.75 g/m*3 5.2 C 1.6 km/h
204 06-11-2020 16:55:00 5.2 C 6.75 g/m*3 5.2 C 3.2 km/h
205 06-11-2020 17:00:00 5.1 C 6.7 g/m*3 5.1 C 4.8 km/h
206 06-11-2020 17:05:00 4.9 C 6.55 g/m*3 4.9 C 4.8 km/h
207 06-11-2020 17:10:00 4.8 C 6.5 g/m*3 3.36 C 6.4 km/h
208 06-11-2020 17:15:00 4.7 C 6.53 g/m*3 3.25 C 6.4 km/h
209 06-11-2020 17:20:00 4.6 C 6.42 g/m*3 4.6 C 4.8 km/h
210 06-11-2020 17:25:00 4.5 C 6.38 g/m*3 3.02 C 6.4 km/h
211 06-11-2020 17:30:00 4.4 C 6.33 g/m*3 4.4 C 1.6 km/h
212 06-11-2020 17:35:00 4.4 C 6.33 g/m*3 4.4 C 3.2 km/h
213 06-11-2020 17:40:00 4.3 C 6.29 g/m*3 4.3 C 3.2 km/h
214 06-11-2020 17:45:00 4.3 C 6.29 g/m*3 4.3 C 3.2 km/h
215 06-11-2020 17:50:00 4.1 C 6.21 g/m*3 4.1 C 3.2 km/h
216 06-11-2020 17:55:00 3.9 C 6.13 g/m*3 3.9 C 1.6 km/h
217 06-11-2020 18:00:00 3.9 C 6.13 g/m*3 3.9 C 1.6 km/h
218 06-11-2020 18:05:00 3.8 C 6.09 g/m*3 3.8 C 3.2 km/h
219 06-11-2020 18:10:00 3.7 C 6.04 g/m*3 3.7 C 3.2 km/h
220 06-11-2020 18:15:00 3.6 C 6 g/m*3 3.6 C 4.8 km/h
221 06-11-2020 18:20:00 3.6 C 6 g/m*3 3.6 C 0 km/h
222 06-11-2020 18:25:00 3.4 C 5.92 g/m*3 3.4 C 0 km/h
223 06-11-2020 18:30:00 3.3 C 5.88 g/m*3 3.3 C 0 km/h
224 06-11-2020 18:35:00 3.3 C 5.88 g/m*3 3.3 C 0 km/h
225 06-11-2020 18:40:00 3.2 C 5.85 g/m*3 3.2 C 0 km/h
Sensor: Nr:Datum:Temp:Abs-Feuchte:Windchill:Wind:
Aussen-T/F 226 06-11-2020 18:45:00 3.1 C 5.75 g/m*3 3.1 C 0 km/h
227 06-11-2020 18:50:00 2.9 C 5.67 g/m*3 2.9 C 0 km/h
228 06-11-2020 18:55:00 2.9 C 5.67 g/m*3 2.9 C 0 km/h
229 06-11-2020 19:00:00 2.8 C 5.63 g/m*3 2.8 C 0 km/h
230 06-11-2020 19:05:00 2.7 C 5.59 g/m*3 2.7 C 0 km/h
231 06-11-2020 19:10:00 2.7 C 5.59 g/m*3 2.7 C 0 km/h
232 06-11-2020 19:15:00 2.6 C 5.56 g/m*3 2.6 C 0 km/h
233 06-11-2020 19:20:00 2.5 C 5.52 g/m*3 2.5 C 0 km/h
234 06-11-2020 19:25:00 2.5 C 5.52 g/m*3 2.5 C 0 km/h
235 06-11-2020 19:30:00 2.4 C 5.48 g/m*3 2.4 C 0 km/h
236 06-11-2020 19:35:00 2.3 C 5.44 g/m*3 2.3 C 0 km/h
237 06-11-2020 19:40:00 2.2 C 5.41 g/m*3 2.2 C 0 km/h
238 06-11-2020 19:45:00 2.2 C 5.41 g/m*3 2.2 C 0 km/h
239 06-11-2020 19:50:00 2.1 C 5.37 g/m*3 2.1 C 0 km/h
240 06-11-2020 19:55:00 2.1 C 5.37 g/m*3 2.1 C 0 km/h
241 06-11-2020 20:00:00 2.1 C 5.37 g/m*3 2.1 C 0 km/h
242 06-11-2020 20:05:00 2 C 5.33 g/m*3 2 C 0 km/h
243 06-11-2020 20:10:00 2 C 5.33 g/m*3 2 C 0 km/h
244 06-11-2020 20:15:00 1.9 C 5.3 g/m*3 1.9 C 0 km/h
245 06-11-2020 20:20:00 1.9 C 5.3 g/m*3 1.9 C 0 km/h
246 06-11-2020 20:25:00 1.9 C 5.3 g/m*3 1.9 C 0 km/h
247 06-11-2020 20:30:00 1.9 C 5.3 g/m*3 1.9 C 0 km/h
248 06-11-2020 20:35:00 1.9 C 5.3 g/m*3 1.9 C 0 km/h
249 06-11-2020 20:40:00 1.8 C 5.26 g/m*3 1.8 C 0 km/h
250 06-11-2020 20:45:00 1.8 C 5.26 g/m*3 1.8 C 0 km/h
Sensor: Nr:Datum:Temp:Abs-Feuchte:Windchill:Wind:
Aussen-T/F 251 06-11-2020 20:50:00 1.7 C 5.23 g/m*3 1.7 C 0 km/h
252 06-11-2020 20:55:00 1.6 C 5.19 g/m*3 1.6 C 0 km/h
253 06-11-2020 21:00:00 1.6 C 5.19 g/m*3 1.6 C 0 km/h
254 06-11-2020 21:05:00 1.6 C 5.19 g/m*3 1.6 C 0 km/h
255 06-11-2020 21:10:00 1.5 C 5.16 g/m*3 1.5 C 0 km/h
256 06-11-2020 21:15:00 1.5 C 5.16 g/m*3 1.5 C 0 km/h
257 06-11-2020 21:20:00 1.4 C 5.12 g/m*3 1.4 C 0 km/h
258 06-11-2020 21:25:00 1.4 C 5.12 g/m*3 1.4 C 0 km/h
259 06-11-2020 21:30:00 1.4 C 5.12 g/m*3 1.4 C 0 km/h
260 06-11-2020 21:35:00 1.4 C 5.12 g/m*3 1.4 C 0 km/h
261 06-11-2020 21:40:00 1.5 C 5.16 g/m*3 1.5 C 0 km/h
262 06-11-2020 21:45:00 1.5 C 5.16 g/m*3 1.5 C 0 km/h
263 06-11-2020 21:50:00 1.4 C 5.12 g/m*3 1.4 C 0 km/h
264 06-11-2020 21:55:00 1.3 C 5.09 g/m*3 1.3 C 0 km/h
265 06-11-2020 22:00:00 1.3 C 5.09 g/m*3 1.3 C 0 km/h
266 06-11-2020 22:05:00 1.3 C 5.09 g/m*3 1.3 C 0 km/h
267 06-11-2020 22:10:00 1.3 C 5.09 g/m*3 1.3 C 0 km/h
268 06-11-2020 22:15:00 1.3 C 5.09 g/m*3 1.3 C 0 km/h
269 06-11-2020 22:20:00 1.3 C 5.09 g/m*3 1.3 C 0 km/h
270 06-11-2020 22:25:00 1.3 C 5.09 g/m*3 1.3 C 0 km/h
271 06-11-2020 22:30:00 1.3 C 5.09 g/m*3 1.3 C 0 km/h
272 06-11-2020 22:35:00 1.2 C 5.05 g/m*3 1.2 C 0 km/h
273 06-11-2020 22:40:00 1.2 C 5.05 g/m*3 1.2 C 0 km/h
274 06-11-2020 22:45:00 1.2 C 5.05 g/m*3 1.2 C 0 km/h
275 06-11-2020 22:50:00 1.1 C 5.02 g/m*3 1.1 C 0 km/h
Sensor: Nr:Datum:Temp:Abs-Feuchte:Windchill:Wind:
Aussen-T/F 276 06-11-2020 22:55:00 1.1 C 5.02 g/m*3 1.1 C 0 km/h
277 06-11-2020 23:00:00 1.1 C 5.02 g/m*3 1.1 C 0 km/h
278 06-11-2020 23:05:00 1.1 C 5.02 g/m*3 1.1 C 0 km/h
279 06-11-2020 23:10:00 1 C 4.98 g/m*3 1 C 0 km/h
280 06-11-2020 23:15:00 1 C 4.98 g/m*3 1 C 0 km/h
281 06-11-2020 23:20:00 0.9 C 4.95 g/m*3 0.9 C 0 km/h
282 06-11-2020 23:25:00 0.8 C 4.91 g/m*3 0.8 C 0 km/h
283 06-11-2020 23:30:00 0.8 C 4.91 g/m*3 0.8 C 0 km/h
284 06-11-2020 23:35:00 0.8 C 4.91 g/m*3 0.8 C 0 km/h
285 06-11-2020 23:40:00 0.8 C 4.91 g/m*3 0.8 C 0 km/h
286 06-11-2020 23:45:00 0.8 C 4.91 g/m*3 0.8 C 0 km/h
287 06-11-2020 23:50:00 0.8 C 4.91 g/m*3 0.8 C 0 km/h
288 06-11-2020 23:55:00 0.8 C 4.91 g/m*3 0.8 C 0 km/h

Legende:
   Min
   Max


Maximal/Minimal-Werte vom 06.11.2020 - 06.11.2020

Sensor Min Max Avg
Temp
(Aussen-T/F)
0.8 °C
06-11-2020  23:25:00
6.4 °C
06-11-2020  15:10:00
3.24 °C
Abs-Feuchte
(Aussen-T/F)
4.91 g/m*3
06-11-2020  23:25:00
7.3 g/m*3
06-11-2020  15:10:00
5.89 g/m*3
Windchill
(Aussen-T/F)
0.8 C
06-11-2020  23:25:00
6.4 C
06-11-2020  15:10:00
3.19 C

Die Daten stammen von einer Davis Vantage Pro 2 Wetter-Station und werden unter Linux mit der Software wview2wettercgi und aufbereitet. Alle Angaben erfolgen ohne Gewähr für ihre Vollständigkeit oder Richtigkeit.
Kontakt: Rainer Krienke krienke@uni-koblenz.de . Meine Webseiten an der Uni Koblenz oder privat.
Version: $Revision: 0.78 $